Terminal Aerodrome Forecast
Issued by NWS

Home | Current Version | Previous Version | Text Only | Print | Product List | Glossary On
Versions: 1 2 3 4 5 6 7 8 9 10 11 12 13
000
FTAK31 PANC 231740
TAFAAQ
TAF
PAAQ 231740Z 2318/2418 VRB04KT P6SM OVC090
     FM232200 16008KT P6SM VCSH SCT050 BKN080
     FM240600 VRB05KT P6SM FEW060 SCT100=

USA.gov is the U.S. government's official web portal to all federal, state and local government web resources and services.